Simultaneous Nadir Overpasses (SNOs) Predictions

Prediction of SNOs between LANDSAT-8 and METOP-B Satellite Orbit:

Table of predicted SNOs for the next 14.0 days since TLE Epoch: 6/14/2014
Index Date (LANDSAT-8) Time (LANDSAT-8) Lat,Lon (LANDSAT-8) SZA (LANDSAT-8 ) Date (METOP-B) Time (METOP-B) Lat,Lon (METOP-B) SZA (METOP-B ) Distance(km) Time Diff (sec)
1 06/15/2014 14:19:00 -81.14,-174.47 119.98 06/15/2014 14:18:21 -81.15,-174.37 119.99 1.78 39
2 06/15/2014 15:08:25 81.17, -6.36 60.09 06/15/2014 15:09:01 81.17, -6.49 60.09 2.28 36
3 06/18/2014 09:53:15 -81.16,-107.80 120.05 06/18/2014 09:52:41 -81.16,-107.64 120.05 2.73 34
4 06/18/2014 10:42:41 81.16, 59.91 59.96 06/18/2014 10:43:22 81.16, 59.84 59.97 1.27 41
5 06/21/2014 05:27:31 -81.14, -41.63 120.14 06/21/2014 05:27:03 -81.14, -41.71 120.16 1.52 28
6 06/21/2014 06:16:56 81.17, 126.43 59.93 06/21/2014 06:17:42 81.17, 126.50 59.96 1.22 46
7 06/24/2014 01:01:44 -81.16, 25.17 120.08 06/24/2014 01:01:21 -81.16, 25.31 120.07 2.46 23
8 06/24/2014 01:51:10 81.17,-167.16 59.93 06/24/2014 01:52:02 81.17,-167.26 59.94 1.73 52
9 06/26/2014 20:35:59 -81.15, 91.48 120.04 06/26/2014 20:35:42 -81.16, 91.55 120.04 1.20 17




NCC Satellite Simultaneous Nadir Overpasses (SNOs) Prediction Service
